Location: Mountain_View
(35.6670°N, 81.4000°W)
Time: 10:17:52
(UTC-05:00)

ISS - Pass Details

Date: 24 November 2019
Orbit: 411 x 421 km, 51.6° (Epoch: 16 December)

Event Time Altitude Azimuth Distance (km) Brightness Sun altitude
Rises 18:33:40 0° 263° (W) 2,347 1.8 -16.0°
Reaches altitude 10° 18:36:09 10° 282° (WNW) 1,490 0.0 -16.5°
Maximum altitude 18:38:38 19° 330° (NNW) 1,062 -1.6 -17.0°
Enters shadow 18:40:11 15° 4° (N) 1,246 -1.5 -17.3°
